Location: Opava
(49.9500°N, 17.9170°E)
Time: 03:25:10
(UTC+01:00)

ISS - Pass Details

Date: 06 October 2020
Orbit: 417 x 420 km, 51.6° (Epoch: 25 October)

Event Time Altitude Azimuth Distance (km) Brightness Sun altitude
Rises 18:45:23 0° 287° (WNW) 2,369 1.7 -5.7°
Reaches altitude 10° 18:47:35 10° 279° (W) 1,503 0.8 -6.0°
Maximum altitude 18:50:41 35° 212° (SSW) 698 -2.3 -6.5°
Drops below altitude 10° 18:53:47 10° 144° (SE) 1,497 -1.3 -7.0°
Enters shadow 18:55:38 - 136° (SE) 2,220 -0.5 -7.3°
